Погода в Чинхойи

Зимбабве     17°21′34″S   30°11′46″E
темп.,
°C
ветер,
м/с
пор.,
м/с
влажн.,
%
обл.,
%
осадки,
мм/ч
давл.,
гПа
погр.,
м
10 августа, ср
ср1023:00+15св11390 0.0 101913
02:00+14всв22420 0.0 101920
05:00+12в11460 0.0 102011
08:00+17всв25370 0.0 1021283
11:00+26св23190 0.0 10191698
14:00+30вюв12130 0.0 10142674
17:00+27в23160 0.0 1014248
20:00+18ссз11310 0.0 101811
11 августа, чт
чт1123:00+16св22440 0.0 101930
02:00+14всв22460 0.0 101919
05:00+13в11610 0.0 102017
08:00+17всв25500 0.0 1021352
11:00+26всв23240 0.0 10182081
14:00+29вюв23160 0.0 10142720
17:00+27всв23190 0.0 1013424
20:00+19с25372 0.0 1018110
12 августа, пт
пт1223:00+16всв22540 0.0 101942
02:00+14в11560 0.0 101816
05:00+13всв12580 0.0 101913
08:00+18всв25440 0.0 1019307
11:00+26св23250 0.0 10171941
14:00+31св12160 0.0 10132720
17:00+28в111723 0.0 101270
20:00+19с22350 0.0 101530
13 августа, сб
сб1323:00+16св234961 0.0 101750
02:00+15всв115753 0.0 101612
05:00+14св12565 0.0 101612
08:00+19всв243810 0.0 1017273
11:00+27ссв332445 0.0 10141739
14:00+31ссз11179 0.0 10102490
17:00+28ссз23196 0.0 1009324
20:00+19ссв23395 0.0 101355
14 августа, вс
вс1423:00+17св12450 0.0 101414
02:00+15св11510 0.0 101311
05:00+14св22540 0.0 101315
08:00+20ссв24365 0.0 1014216
11:00+31с23155 0.0 10112057
14:00+33з33105 0.0 10073238
17:00+31юз36105 0.0 1007452
20:00+21сз11213 0.0 101111